Station GIXA2 - Guard Island, AK Image indicating link to RSS feed of recent meteorological observations for station GIXA2


Conditions at GIXA2 as of
(11:42 am AKDT)
1942 GMT on 05/28/2024:
     

Click on the graph icon in the table below to see a time series plot of the last five days of that observation.

5-day plot - Wind Direction Wind Direction (WDIR): S ( 170 deg true )
5-day plot - Wind Speed Wind Speed (WSPD): 3 kts
5-day plot - Wind Gust Wind Gust (GST): 8 kts
5-day plot - Air Temperature Air Temperature (ATMP): 50.2 °F
5-day plot - Dew Point Dew Point (DEWP): 43.5 °F
5-day plot - Wind Chill Wind Chill (CHILL): 49.6 °F
5-day plot - Wind Speed at 10 Meters Wind Speed at 10 meters (WSPD10M): 4 kts
5-day plot - Wind Speed at 20 Meters Wind Speed at 20 meters (WSPD20M): 4 kts
5-day plot -  Wind Speed, Wind Gust and Atmospheric Pressure Combined plot of Wind Speed, Gust, and Air Pressure
Previous observations
TIME
(AKDT)
5-day plot - Wind Direction
WDIR
 
5-day plot - Wind Speed
WSPD
kts
5-day plot - Wind Gust
GST
kts
5-day plot - Wave Height
WVHT
ft
5-day plot - Dominant Wave Period
DPD
sec
5-day plot - Average Wave Period
APD
sec
5-day plot - Mean Wave Direction
MWD
 
5-day plot - Atmospheric Pressure
PRES
in
5-day plot - Pressure Tendency
PTDY
in
5-day plot - Air Temperature
ATMP
°F
5-day plot - Water Temperature
WTMP
°F
5-day plot - Dew Point
DEWP
°F
5-day plot - Salinity
SAL
psu
5-day plot - Visibility
VIS
nmi
5-day plot - Tide (above MLLW)
TIDE
ft
2024-05-28 11:32 amSSW 3 7------ 50.5- 44.1---
2024-05-28 11:22 am SE 4 8------ 49.5- 42.4---
2024-05-28 11:12 am SE 4 8------ 48.9- 43.0---
2024-05-28 11:02 am SE 4 8------ 49.1- 43.2---
2024-05-28 10:52 am SE 4 10------ 49.3- 42.8---
2024-05-28 10:42 amESE 7 12------ 49.1- 42.3---
2024-05-28 10:32 am SE 4 9------ 49.5- 42.4---
2024-05-28 10:22 amESE 9 13------ 49.3- 41.7---
2024-05-28 10:12 amESE 9 14------ 50.0- 41.9---
2024-05-28 10:02 am SE 5 12------ 50.5- 42.3---
2024-05-28 09:52 amESE 6 10------ 50.2- 41.5---
2024-05-28 09:42 amESE 7 11------ 49.8- 41.4---
2024-05-28 09:32 amESE 8 11------ 49.5- 41.7---
2024-05-28 09:22 amESE 9 12------ 49.5- 41.5---
2024-05-28 09:12 amESE 7 10------ 49.5- 41.9---
2024-05-28 09:02 am E 6 7------ 49.3- 41.9---
2024-05-28 08:52 am E 7 9------ 49.3- 41.7---
2024-05-28 08:42 am E 7 9------ 49.3- 41.9---
2024-05-28 08:32 am E 7 11------ 49.3- 41.9---
2024-05-28 08:22 am E 7 9------ 49.1- 41.9---
2024-05-28 08:12 am E 8 10------ 48.7- 41.5---
2024-05-28 08:02 amESE 9 11------ 48.6- 41.2---
2024-05-28 07:52 amESE 9 11------ 48.6- 41.5---
2024-05-28 07:42 am E 8 11------ 48.4- 41.9---
2024-05-28 07:32 am E 5 7------ 47.7- 42.3---
2024-05-28 07:22 am E 7 9------ 47.5- 42.3---
2024-05-28 07:12 am E 8 10------ 47.8- 41.7---
2024-05-28 07:02 am E 7 10------ 47.3- 41.9---
2024-05-28 06:52 am E 7 8------ 47.1- 41.9---
2024-05-28 06:42 am E 7 9------ 46.8- 41.7---
2024-05-28 06:32 am E 8 9------ 46.6- 41.7---
2024-05-28 06:22 am E 8 9------ 46.6- 41.7---
2024-05-28 06:12 am E 7 9------ 46.6- 41.7---
2024-05-28 06:02 amENE 3 8------ 46.4- 41.9---
2024-05-28 05:52 amENE 4 7------ 46.4- 41.7---
2024-05-28 05:42 amENE 6 9------ 46.4- 41.7---
2024-05-28 05:32 amENE 8 9------ 46.4- 41.5---
2024-05-28 05:22 amENE 6 10------ 46.0- 42.1---
2024-05-28 05:12 amENE 3 8------ 46.0- 42.3---
2024-05-28 05:02 am NE 2 7------ 46.2- 42.6---
2024-05-28 04:52 amNNE 2 6------ 45.9- 42.3---
2024-05-28 04:42 am- 0 2------ 45.9- 42.3---
2024-05-28 04:32 am- 0 2------ 45.9- 42.3---
2024-05-28 04:22 amENE 1 2------ 45.9- 42.3---
2024-05-28 04:12 am NE 1 3------ 45.7- 42.1---
2024-05-28 04:02 amNNE 2 4------ 45.7- 42.3---
2024-05-28 03:52 amNNE 1 3------ 45.7- 42.3---
2024-05-28 03:42 am NE 1 2------ 45.7- 42.3---
2024-05-28 03:32 amENE 2 6------ 45.7- 42.1---
2024-05-28 03:22 amENE 2 10------ 45.5- 42.1---
2024-05-28 03:12 am NE 2 9------ 45.5- 42.3---
2024-05-28 03:02 am NE 3 7------ 45.3- 42.3---
2024-05-28 02:52 am NE 3 4------ 45.3- 42.1---
2024-05-28 02:42 am NE 2 4------ 45.3- 41.9---
2024-05-28 02:32 amENE 2 3------ 45.1- 41.7---
2024-05-28 02:22 am NE 1 3------ 45.1- 41.7---
2024-05-28 02:12 amENE 1 3------ 45.0- 41.4---
2024-05-28 02:02 am NE 1 3------ 45.0- 41.4---
2024-05-28 01:52 am N 1 4------ 44.8- 41.2---
2024-05-28 01:42 am N 1 4------ 44.6- 41.0---
2024-05-28 01:32 amNNW 2 4------ 44.4- 41.0---
2024-05-28 01:22 amWNW 1 2------ 44.6- 41.0---
2024-05-28 01:12 am W 2 5------ 44.6- 41.0---
2024-05-28 01:02 am W 4 6------ 44.6- 41.0---
2024-05-28 12:52 am W 3 6------ 44.6- 41.2---
2024-05-28 12:42 amWSW 2 6------ 44.8- 41.4---
2024-05-28 12:32 amWSW 1 6------ 44.4- 41.0---
2024-05-28 12:22 amWSW 2 4------ 44.4- 41.0---
2024-05-28 12:12 amWSW 1 4------ 44.8- 41.4---
2024-05-28 12:02 amWSW 2 4------ 44.8- 41.2---
2024-05-27 11:52 pmWSW 3 7------ 44.8- 40.8---
2024-05-27 11:42 pmWSW 2 5------ 45.1- 41.0---
2024-05-27 11:32 pmWSW 2 5------ 45.3- 41.0---
2024-05-27 11:22 pmWSW 3 8------ 45.9- 41.4---
2024-05-27 11:12 pmSSW 4 15------ 47.1- 41.9---
2024-05-27 11:02 pmESE 9 13------ 47.7- 42.1---
2024-05-27 10:52 pmESE 9 16------ 47.7- 42.1---
2024-05-27 10:42 pmESE 8 12------ 47.7- 41.9---
2024-05-27 10:32 pmESE 9 15------ 47.7- 41.7---
2024-05-27 10:22 pmESE 8 16------ 47.7- 42.1---
2024-05-27 10:12 pmESE 9 14------ 47.5- 42.1---
2024-05-27 10:02 pmESE 9 14------ 47.5- 42.3---
2024-05-27 09:52 pmESE 8 13------ 47.5- 42.4---
2024-05-27 09:42 pmESE 7 12------ 47.5- 42.6---
2024-05-27 09:32 pmESE 9 13------ 47.7- 42.4---
2024-05-27 09:22 pmESE 10 13------ 47.7- 42.4---
2024-05-27 09:12 pmESE 9 14------ 47.7- 42.3---
2024-05-27 09:02 pmESE 9 15------ 47.7- 42.1---
2024-05-27 08:52 pmESE 10 14------ 47.8- 41.9---
2024-05-27 08:42 pmESE 9 12------ 48.0- 42.3---
2024-05-27 08:32 pmESE 7 10------ 48.2- 42.3---
2024-05-27 08:22 pmESE 6 13------ 48.0- 42.1---
2024-05-27 08:12 pmESE 8 12------ 48.4- 42.1---
2024-05-27 08:02 pm SE 7 15------ 48.4- 42.1---
2024-05-27 07:52 pm SE 8 15------ 48.4- 42.1---
2024-05-27 07:42 pm SE 9 16------ 48.6- 42.1---
2024-05-27 07:32 pm SE 9 17------ 48.6- 41.9---
2024-05-27 07:22 pm SE 9 16------ 48.6- 42.1---
2024-05-27 07:12 pm SE 9 18------ 48.6- 42.3---
2024-05-27 07:02 pm SE 7 17------ 48.7- 42.4---
2024-05-27 06:52 pm SE 7 16------ 48.7- 42.4---
2024-05-27 06:42 pm SE 8 17------ 48.7- 42.4---
2024-05-27 06:32 pm SE 9 18------ 48.7- 42.3---
2024-05-27 06:22 pm SE 8 17------ 48.7- 42.6---
2024-05-27 06:12 pm SE 8 17------ 48.7- 42.3---
2024-05-27 06:02 pm SE 8 19------ 49.3- 42.3---
2024-05-27 05:52 pm SE 9 17------ 49.5- 42.6---
2024-05-27 05:42 pm SE 10 19------ 49.5- 42.4---
2024-05-27 05:32 pm SE 9 22------ 49.5- 42.4---
2024-05-27 05:22 pm SE 9 20------ 49.5- 42.6---
2024-05-27 05:12 pm SE 8 18------ 49.5- 43.0---
2024-05-27 05:02 pm SE 9 19------ 49.5- 42.8---
2024-05-27 04:52 pm SE 8 24------ 49.5- 42.6---
2024-05-27 04:42 pm SE 10 19------ 49.5- 42.8---
2024-05-27 04:32 pm SE 8 17------ 49.6- 43.2---
2024-05-27 04:22 pm SE 6 12------ 49.3- 43.3---
2024-05-27 04:12 pm SE 7 12------ 48.7- 43.7---
2024-05-27 03:52 pmESE 6 10------ 47.8- 43.2---
2024-05-27 03:42 pm SE 5 8------ 47.7- 43.0---
2024-05-27 03:32 pmESE 7 9------ 47.5- 42.8---
2024-05-27 03:22 pmESE 9 11------ 47.1- 42.6---
2024-05-27 03:12 pmESE 9 13------ 46.8- 42.3---
2024-05-27 03:02 pmESE 9 12------ 46.8- 42.4---
2024-05-27 02:52 pmESE 9 12------ 46.6- 42.1---
2024-05-27 02:43 pmESE 10 14------ 46.4- 42.1---
2024-05-27 02:32 pmESE 7 11------ 46.2- 41.9---
2024-05-27 02:22 pmESE 8 13------ 46.0- 41.7---
2024-05-27 02:12 pmESE 10 13------ 45.9- 41.4---
2024-05-27 02:02 pmESE 9 12------ 45.9- 41.0---
2024-05-27 01:52 pmESE 8 10------ 45.7- 40.3---
2024-05-27 01:42 pm SE 6 10------ 45.1- 39.9---
2024-05-27 01:32 pm SE 9 15------ 45.1- 39.6---
2024-05-27 01:22 pm SE 8 14------ 45.7- 41.2---
2024-05-27 01:12 pmESE 13 16------ 46.2- 41.4---
2024-05-27 01:02 pmESE 13 17------ 46.4- 41.2---
2024-05-27 12:52 pmESE 15 18------ 46.4- 41.2---
2024-05-27 12:42 pmESE 15 19------ 46.8- 41.5---
2024-05-27 12:32 pmESE 16 20------ 46.8- 41.4---
2024-05-27 12:22 pmESE 15 19------ 46.8- 41.2---
2024-05-27 12:12 pmESE 15 19------ 46.9- 41.4---
2024-05-27 12:02 pmESE 15 19------ 46.8- 41.5---
2024-05-27 11:52 amESE 13 21------ 46.8- 41.9---
2024-05-27 11:42 amESE 9 14------ 46.6- 42.1---
2024-05-27 11:32 amESE 9 14------ 46.2- 41.5---
2024-05-27 11:22 amESE 4 10------ 45.9- 41.4---
2024-05-27 11:12 am SE 4 10------ 45.5- 41.2---
2024-05-27 11:02 am SE 5 10------ 45.5- 41.2---
2024-05-27 10:52 am SE 9 16------ 45.1- 41.0---